Info for pilots

Image

Airfield Info:

EBUL
N51 08.7 - E003 28.6
ELEV 95' / 29m
RWY 07 / 25
799m * 45m (CIV) - 2980m (MIL)
Ursel Radio 135.125
Tel Aero Club Brugge : +32(0)9 374 25 75
Tel Vliegclub Ursel : +32(0)9 374 12 90

Operational Hours
FRI: 14h00LT - SS+30 MIN
SAT, SUN and HOL: TKOF and LDG: 10h00LT - SS+30 MIN
After 20h00LT to SS+30 MIN: only LDG allowed (PN)

Local Traffic Regulations
The use of the AD is subject to PPR from the OPR;
AD given in concession to the CIV club outside MIL ACT;
Solo training flights can only be performed after two reconnaissance flights with instructor. The solo training flight must be performed within six weeks after the first reconnaissance flight;
Jet aircraft operations not allowed.

Obstacles:
trees between 10M AGL and 22M AGL, caution when crosswind:
North of the RWY, 75M from CL, along the whole length of the RWY;
South of the RWY, 75M from CL, and at THR RWY 25 from THR RWY 07 to 140M east of THR RWY 07



Image

Image

Watch out!

Flight Procedures
RWY 07 and 25 left hand circuit, 1.200 FT QNH

Image

Taxi procedures:
RWY 07 (TKOF):
taxi on the north side of the RWY to the HLDG position of RWY 07

RWY 07 (LDG):
after landing roll out to the second intersection (THR RWY 25), turn left, turn left again, taxi via the TWY to the first intersection, turn left, cross the RWY (check for landing ACFT), taxi on the south side of the RWY to the AD reporting office

RWY 25 (TKOF):
taxi on the north side of the first intersection, turn left, next turn right, taxi via the TWY to the second intersection, turn right, taxi to the HLDG of RWY 25

RWY 25 (LDG):
after landing roll out to the end of the RWY, taxi on the south side of the RWY to the AD reporting office.





Image

Taxi & Circuit?

Image
Image
Image
Image

Current Metars - Auto refresh

EBOS - Oostende
2019/01/23 21:50 EBOS 232150Z 12003KT 6000 FEW015 BKN025 M00/M02 Q1007 R08/629295 NOSIG


EBAW - Antwerpen
2019/01/23 21:50 EBAW 232150Z 35005KT 320V030 6000 BKN012 M00/M02 Q1006 TEMPO BKN010


EBBR - Brussel
2019/01/23 21:50 EBBR 232150Z 36005KT 330V030 7000 BKN013 M01/M03 Q1005 R25R/CLRD// R01/592091 R25L/CLRD// NOSIG

Source : NOAA.GOV

Current TAFs - Auto refresh

EBOS - Oostende
2019/01/23 18:27 TAF EBOS 231710Z 2318/2424 07005KT 4500 BR BKN015 TEMPO 2404/2414 3500 -SHSNRA PROB30 TEMPO 2405/2412 2000 SHSN BKN007 SCT015TCU

EBAW - Antwerpen
2019/01/23 21:27 TAF TAF EBAW 232010Z 2321/2406 01004KT 6000 BKN012 TEMPO 2400/2406 4000 BR SCT015 PROB30 TEMPO 2402/2406 0800 BCFG

EBBR - Brussel
2019/01/23 18:28 TAF EBBR 231710Z 2318/2424 03006KT 6000 BKN012 PROB30 TEMPO 2318/2321 2000 -SN BR BKN007 BECMG 2321/2323 SCT020 PROB30 TEMPO 2404/2408 0800 BCFG TEMPO 2407/2424 3500 -SHSN PROB30 TEMPO 2416/2422 1500 SHSN BKN007 SCT015TCU

Source : NOAA.GOV
Image

Webcam

Direction runway 07 :